Date,TemperatureHighF,TemperatureAvgF,TemperatureLowF,DewpointHighF,DewpointAvgF,DewpointLowF,HumidityHigh,HumidityAvg,HumidityLow,PressureMaxIn,PressureMinIn,WindSpeedMaxMPH,WindSpeedAvgMPH,GustSpeedMaxMPH,PrecipitationSumIn
2014-1-1,47,34,26,38,32,25,97,91,71,0.00,40.00,3,1,5,0.00
2014-1-2,49,37,31,41,35,30,97,91,72,0.00,40.00,8,2,14,0.00
2014-1-3,47,41,28,43,32,26,93,70,54,0.00,40.00,11,4,22,0.00
2014-1-4,43,28,19,30,22,-100,94,83,55,0.00,40.00,3,1,5,0.00
2014-1-5,43,30,19,27,21,17,93,72,44,0.00,40.00,5,2,13,0.00
2014-1-6,37,30,24,28,24,20,89,77,58,0.00,40.00,4,1,8,0.00
2014-1-7,37,33,31,34,31,28,98,92,75,0.00,40.00,2,1,3,0.01
2014-1-8,40,36,33,40,35,32,99,98,93,0.00,40.00,3,1,6,0.02
2014-1-9,46,42,39,46,39,34,99,89,70,0.00,40.00,7,2,20,0.02
2014-1-10,53,49,42,44,40,36,97,73,53,0.00,40.00,10,4,21,0.00
2014-1-11,52,45,42,45,37,-100,99,77,53,0.00,40.00,14,7,35,0.02
2014-1-12,54,48,41,43,40,33,86,73,61,0.00,40.00,9,5,23,0.01
2014-1-13,52,49,44,45,41,37,93,74,58,0.00,40.00,15,6,31,0.00
2014-1-14,50,40,31,41,37,31,97,90,71,0.00,40.00,2,1,4,0.00
2014-1-15,47,36,30,39,34,29,99,93,68,0.00,40.00,3,2,7,0.00
2014-1-16,50,34,25,36,30,24,97,86,56,0.00,40.00,3,2,7,0.00
2014-1-17,41,32,24,35,29,22,98,90,72,0.00,40.00,6,2,13,0.00
2014-1-18,36,34,33,31,27,-100,85,81,78,0.00,40.00,5,3,13,0.00
2014-1-19,37,34,32,30,29,28,85,81,73,0.00,40.00,6,3,14,0.00
2014-1-20,35,34,33,30,28,27,84,79,74,0.00,40.00,6,4,14,0.00
2014-1-21,35,33,32,27,27,26,80,77,71,0.00,40.00,5,4,12,0.00
2014-2-11,42,37,32,41,37,32,100,99,97,0.00,40.00,2,1,4,0.01
2014-2-12,52,41,34,46,39,34,100,94,74,0.00,40.00,6,2,12,0.02
2014-2-13,53,46,38,42,37,31,100,72,43,0.00,40.00,7,4,14,0.01
2014-2-14,50,41,36,46,39,35,100,93,72,0.00,40.00,6,2,14,0.03
2014-2-15,46,38,35,40,35,-100,100,92,65,0.00,40.00,7,2,20,0.03
2014-2-16,49,42,37,39,36,33,93,78,54,0.00,40.00,7,3,14,0.01
2014-2-17,53,46,40,43,39,35,97,78,52,0.00,40.00,14,5,35,0.02
2014-2-18,45,40,35,43,37,29,99,91,60,0.00,40.00,12,3,28,0.03
2014-2-19,45,38,35,38,35,33,98,89,61,0.00,40.00,8,3,16,0.01
2014-2-20,46,43,35,41,39,34,99,86,76,0.00,40.00,10,5,20,0.01
2014-2-21,52,46,42,38,33,29,74,61,45,0.00,40.00,9,7,19,0.01
2014-2-22,47,39,33,32,30,27,90,70,47,0.00,40.00,12,5,24,0.00
2014-2-23,55,42,30,40,35,29,94,75,47,0.00,40.00,7,3,20,0.00
2014-2-24,45,39,36,41,35,32,89,83,75,0.00,40.00,6,3,17,0.01
2014-2-25,37,36,35,31,29,28,84,75,71,0.00,40.00,8,5,21,0.01
2014-2-26,41,38,35,29,28,26,72,66,59,0.00,40.00,5,4,12,0.00
2014-2-27,43,39,37,36,33,28,89,77,69,0.00,40.00,5,2,11,0.00
2014-2-28,41,38,37,37,36,34,93,89,82,0.00,40.00,3,2,6,0.00
2014-3-1,-200,0,200,-100,-100,-100,0,0,100,0.00,40.00,3,3,7,0.00
2014-3-6,54,50,45,45,43,40,90,77,63,0.00,40.00,10,4,22,0.01
2014-3-7,60,48,39,46,43,38,97,83,52,0.00,40.00,7,3,13,0.01
2014-3-8,54,43,33,48,39,-100,100,89,66,0.00,40.00,3,1,5,0.02
2014-3-9,50,49,48,50,49,48,100,100,100,0.00,40.00,3,2,4,0.00
2014-3-14,61,55,48,39,36,33,65,47,37,0.00,40.00,9,6,21,0.00
2014-3-15,66,49,36,49,36,-100,95,68,36,0.00,40.00,8,3,15,0.00
2014-3-16,62,54,43,47,44,37,88,68,41,0.00,40.00,11,5,26,0.00
2014-3-17,48,44,41,37,31,28,83,60,44,0.00,40.00,11,7,24,0.00
2014-3-18,57,42,31,37,33,29,91,70,43,0.00,40.00,7,3,12,0.00
2014-3-19,54,48,42,43,38,32,83,69,56,0.00,40.00,10,8,22,0.00
2014-3-20,50,42,34,35,30,28,81,62,45,0.00,40.00,9,4,15,0.00
2014-3-21,43,32,28,33,29,26,94,87,67,0.00,40.00,2,1,5,0.00
2014-3-24,63,54,41,36,33,32,77,47,31,0.00,40.00,7,4,15,0.00
2014-3-25,52,44,40,44,38,35,85,80,73,0.00,40.00,2,1,6,0.00
2014-3-26,50,46,42,44,43,42,97,88,77,0.00,40.00,2,2,5,0.01
2014-4-1,51,45,41,43,36,-100,93,78,69,0.00,40.00,3,2,7,0.02
2014-4-2,57,49,39,43,38,33,96,68,41,0.00,40.00,13,6,24,0.01
2014-4-3,57,45,34,43,38,33,97,79,50,0.00,40.00,9,3,16,0.00
2014-4-4,56,48,41,42,40,38,97,75,54,0.00,40.00,12,4,20,0.00
2014-4-5,58,49,43,48,42,-100,95,84,70,0.00,40.00,6,2,12,0.00
2014-4-6,62,54,47,51,47,43,90,76,59,0.00,40.00,9,5,17,0.00
2014-4-7,75,55,37,49,44,37,99,71,31,0.00,40.00,5,2,10,0.00
2014-4-8,71,59,42,52,47,40,97,68,35,0.00,40.00,14,6,26,0.00
2014-4-9,63,54,42,49,38,27,93,58,28,0.00,40.00,14,5,23,0.00
2014-4-10,58,46,39,38,35,32,75,67,39,0.00,40.00,8,3,14,0.00
2014-4-15,57,57,57,36,36,36,44,44,44,0.00,40.00,9,9,17,0.00
2014-4-16,54,50,47,44,42,39,80,73,65,0.00,40.00,11,4,18,0.00
2014-4-19,-200,0,200,-100,-100,-100,0,0,100,0.00,40.00,4,4,9,0.00
2014-4-22,53,46,43,43,40,39,94,80,59,0.00,40.00,11,5,18,0.01
2014-4-23,51,49,44,49,48,43,99,97,93,0.00,40.00,4,2,7,0.01
2014-5-3,-200,0,200,-100,-100,-100,0,0,100,0.00,40.00,4,4,7,0.00
2014-5-5,61,57,47,44,43,41,87,60,47,0.00,40.00,12,7,26,0.01
2014-5-6,61,54,45,45,42,37,93,64,41,0.00,40.00,9,5,22,0.00
2014-5-16,69,66,60,49,46,43,66,50,39,0.00,40.00,13,8,26,0.00
2014-5-24,-200,0,200,-100,-100,-100,0,0,100,0.00,40.00,6,6,10,0.00
2014-5-26,70,63,48,50,43,38,86,50,33,0.00,40.00,12,7,23,0.00
2014-5-27,67,56,42,47,42,36,98,63,33,0.00,40.00,13,5,24,0.00
2014-5-28,61,54,43,45,43,41,94,67,50,0.00,40.00,8,4,17,0.00
2014-5-29,66,55,46,48,45,44,96,72,45,0.00,40.00,11,5,20,0.00
2014-5-30,81,60,38,52,45,38,100,65,25,0.00,40.00,6,2,14,0.00
2014-5-31,76,63,48,53,48,-100,99,62,37,0.00,40.00,9,4,19,0.00
2014-6-1,74,62,45,52,49,45,98,66,38,0.00,40.00,11,5,21,0.00
2014-6-2,79,64,43,54,50,43,99,65,35,0.00,40.00,10,4,18,0.00
2014-6-3,68,60,50,53,48,45,93,64,48,0.00,40.00,14,6,25,0.00
2014-6-4,76,62,43,51,46,40,97,61,33,0.00,40.00,11,5,21,0.00
2014-6-5,77,63,42,48,43,36,95,53,23,0.00,40.00,8,4,18,0.00
2014-6-6,80,64,41,48,44,39,97,55,27,0.00,40.00,8,3,16,0.00
2014-6-7,77,63,46,53,48,-100,95,63,41,0.00,40.00,8,4,16,0.00
2014-6-8,81,68,50,54,52,48,94,61,38,0.00,40.00,10,4,21,0.00
2014-6-9,74,65,55,55,50,48,91,59,42,0.00,40.00,10,6,22,0.00
2014-6-10,74,63,49,48,46,41,91,56,37,0.00,40.00,11,6,27,0.00
2014-6-11,81,64,45,52,47,43,97,61,27,0.00,40.00,6,3,11,0.00
2014-6-12,67,58,50,53,50,47,95,75,53,0.00,40.00,13,6,27,0.00
2014-6-13,60,56,52,54,50,45,98,79,62,0.00,40.00,8,4,18,0.00
2014-6-14,66,57,53,47,43,-100,79,61,49,0.00,40.00,8,5,24,0.00
2014-6-15,63,57,49,50,48,41,95,70,61,0.00,40.00,10,5,17,0.00
2014-6-16,62,54,48,45,42,39,80,62,48,0.00,40.00,11,4,19,0.00
2014-6-17,61,55,49,49,46,43,90,72,61,0.00,40.00,7,4,20,0.00
2014-6-18,70,64,54,50,47,44,77,55,44,0.00,40.00,12,7,24,0.00
2014-6-19,78,64,44,52,48,43,98,61,35,0.00,40.00,13,5,25,0.00
2014-6-20,70,63,53,54,48,41,88,61,37,0.00,40.00,10,4,18,0.00
2014-6-21,76,59,41,51,43,-100,98,62,31,0.00,40.00,6,2,12,0.00
2014-6-22,83,63,43,54,48,42,98,65,23,0.00,40.00,5,2,9,0.00
2014-6-23,83,65,49,54,51,47,97,66,31,0.00,40.00,9,4,21,0.00
2014-6-24,77,65,53,56,54,48,98,69,45,0.00,40.00,9,4,22,0.00
2014-6-25,77,64,49,60,55,48,99,73,47,0.00,40.00,7,2,12,0.00
2014-6-26,69,63,59,61,58,55,98,82,68,0.00,40.00,10,4,19,0.00
2014-6-27,73,62,57,60,57,51,99,83,65,0.00,40.00,5,3,13,0.01
2014-6-28,69,61,58,57,51,-100,90,74,60,0.00,40.00,10,5,18,0.00
2014-6-29,71,63,54,54,51,48,89,66,46,0.00,40.00,10,5,19,0.00
2014-6-30,85,67,44,53,47,43,100,57,23,0.00,40.00,6,2,17,0.00
2014-7-1,95,69,48,60,51,46,98,61,19,0.00,40.00,6,2,16,0.00
2014-7-2,85,72,59,60,56,53,90,58,37,0.00,40.00,8,4,18,0.00
2014-7-3,75,65,59,56,52,50,80,64,42,0.00,40.00,12,6,25,0.00
2014-7-4,81,69,55,54,48,40,91,51,27,0.00,40.00,11,4,22,0.00
2014-7-5,86,72,57,58,53,42,93,56,21,0.00,40.00,10,4,19,0.00
2014-7-6,89,74,54,60,56,53,96,57,30,0.00,40.00,10,4,20,0.00
2014-7-7,94,76,56,66,60,54,97,62,27,0.00,40.00,5,3,13,0.00
2014-7-8,91,78,59,65,62,59,98,62,34,0.00,40.00,8,4,22,0.00
2014-7-9,87,74,67,59,57,55,73,58,33,0.00,40.00,9,3,20,0.00
2014-7-12,84,58,69,65,52,64,86,71,46,0.00,40.00,6,2,12,0.00
2014-7-13,79,69,59,68,64,59,97,84,63,0.00,40.00,7,2,14,0.00
2014-7-14,89,75,58,65,62,58,98,67,45,0.00,40.00,7,4,15,0.00
2014-7-15,95,76,57,68,62,57,98,67,33,0.00,40.00,6,2,11,0.00
2014-7-16,94,74,56,65,58,45,98,65,22,0.00,40.00,7,3,17,0.00
2014-7-17,83,72,61,60,50,43,75,50,29,0.00,40.00,12,5,22,0.00
2014-7-18,82,70,54,55,51,48,88,54,34,0.00,40.00,9,5,17,0.00
2014-7-19,86,74,59,63,59,52,88,61,37,0.00,40.00,12,5,25,0.00
2014-7-20,73,68,64,60,55,48,76,63,50,0.00,40.00,11,7,24,0.00
2014-7-22,76,66,60,63,60,54,97,82,61,0.00,40.00,7,2,14,0.00
2014-7-23,64,60,55,63,57,50,99,89,69,0.00,40.00,7,3,17,0.02
2014-7-24,70,61,54,54,53,50,97,75,55,0.00,40.00,8,3,17,0.01
2014-7-25,80,63,45,56,52,45,99,70,37,0.00,40.00,11,4,17,0.00
2014-7-26,86,67,45,60,51,45,99,60,26,0.00,40.00,8,3,16,0.00
2014-7-27,90,69,50,68,58,50,99,70,35,0.00,40.00,4,2,6,0.00
2014-7-28,94,74,53,65,61,53,99,68,36,0.00,40.00,6,3,11,0.00
2014-7-29,94,75,53,63,58,52,97,63,30,0.00,40.00,7,3,13,0.00
2014-7-30,91,76,57,64,59,55,94,60,31,0.00,40.00,8,4,14,0.00
2014-7-31,93,74,55,65,58,54,96,65,30,0.00,40.00,6,3,10,0.00
2014-8-1,93,79,65,66,64,62,92,62,39,0.00,40.00,6,3,11,0.00
2014-8-2,88,76,60,65,62,60,97,65,41,0.00,40.00,8,3,16,0.00
2014-8-3,94,75,59,67,62,58,98,69,32,0.00,40.00,6,2,11,0.00
2014-8-4,92,76,61,67,64,60,98,70,41,0.00,40.00,8,2,13,0.00
2014-8-5,86,75,64,64,53,47,87,48,26,0.00,40.00,11,5,21,0.00
2014-8-6,83,73,60,59,57,55,90,59,39,0.00,40.00,12,6,21,0.00
2014-8-7,84,77,66,56,50,43,69,41,23,0.00,40.00,10,6,19,0.00
2014-8-8,80,70,58,57,52,48,76,55,38,0.00,40.00,10,5,21,0.00
2014-8-9,89,66,48,61,52,41,97,66,18,0.00,40.00,5,2,10,0.00
2014-8-10,100,72,52,67,55,42,98,66,14,0.00,40.00,4,2,12,0.00
2014-8-11,101,75,61,68,59,51,88,62,18,0.00,40.00,4,2,7,0.00
2014-8-12,88,72,65,67,62,59,98,75,40,0.00,40.00,8,2,16,0.02
2014-8-13,78,69,58,64,60,58,100,77,53,0.00,40.00,7,3,16,0.01
2014-8-14,78,67,57,62,58,56,97,75,49,0.00,40.00,6,2,14,0.00
2014-8-15,79,67,56,62,58,55,98,78,50,0.00,40.00,9,4,18,0.00
2014-8-16,85,69,54,62,57,54,99,68,40,0.00,40.00,8,3,15,0.00
2014-8-17,87,73,56,66,62,55,97,69,40,0.00,40.00,7,2,16,0.00
2014-8-18,95,76,57,68,60,51,99,64,23,0.00,40.00,4,2,7,0.00
2014-8-19,85,76,64,63,59,56,94,58,38,0.00,40.00,8,4,18,0.00
2014-8-20,75,67,60,59,51,45,75,57,34,0.00,40.00,12,6,25,0.00
2014-8-21,78,69,53,52,45,36,89,46,23,0.00,40.00,10,5,19,0.00
2014-8-22,79,70,56,58,53,49,87,57,37,0.00,40.00,9,4,18,0.00
2014-8-23,85,65,49,57,51,48,99,64,28,0.00,40.00,4,2,8,0.00
2014-8-24,83,66,50,58,53,49,98,66,33,0.00,40.00,8,3,18,0.00
2014-8-25,88,62,48,57,51,42,98,75,20,0.00,40.00,4,2,7,0.00
2014-8-26,92,68,51,58,53,50,97,66,25,0.00,40.00,3,2,7,0.00
2014-8-27,89,85,74,60,57,56,61,39,32,0.00,40.00,11,6,23,0.00
2014-8-28,84,76,63,62,54,47,88,48,28,0.00,40.00,12,6,22,0.00
2014-8-29,75,68,50,59,56,50,98,66,45,0.00,40.00,13,6,27,0.00
2014-8-30,69,62,61,61,54,49,90,70,63,0.00,40.00,6,4,16,0.00
2014-8-31,71,62,52,56,51,49,97,70,44,0.00,40.00,9,4,16,0.00
2014-9-1,79,69,48,54,52,47,98,58,40,0.00,40.00,11,6,21,0.00
2014-9-2,73,68,56,55,50,47,94,55,43,0.00,40.00,11,7,24,0.00
2014-9-3,71,63,53,50,45,41,86,53,43,0.00,40.00,11,6,22,0.00
2014-9-4,80,61,40,50,45,40,99,63,27,0.00,40.00,7,3,15,0.00
2014-9-5,80,61,44,49,46,42,94,65,27,0.00,40.00,5,2,14,0.00
2014-9-6,-200,0,200,-100,0,200,0,0,100,0.00,40.00,2,2,4,0.00
2014-9-7,89,83,72,54,49,43,34,30,27,0.00,40.00,2,2,7,0.00
2014-9-8,81,72,66,55,52,48,64,50,34,0.00,40.00,4,2,15,0.00
2014-9-10,80,70,53,54,44,32,93,44,25,0.00,40.00,6,3,16,0.00
2014-9-11,70,62,54,36,30,26,49,29,19,0.00,40.00,7,4,19,0.00
2014-9-12,77,59,34,41,33,27,94,47,17,0.00,40.00,4,2,14,0.00
2014-9-13,80,67,42,39,32,28,90,33,14,0.00,40.00,5,2,16,0.00
2014-9-14,83,72,43,47,38,29,87,33,14,0.00,40.00,4,2,12,0.00
2014-9-15,86,72,45,55,43,33,92,41,14,0.00,40.00,4,2,12,0.00
2014-9-16,81,72,57,55,51,49,75,49,35,0.00,40.00,3,2,9,0.00
2014-9-17,82,67,54,55,52,49,93,62,37,0.00,40.00,3,1,7,0.00
2014-9-18,73,66,57,59,56,55,92,73,54,0.00,40.00,3,2,14,0.00
2014-9-19,82,69,58,59,56,55,93,68,40,0.00,40.00,3,2,9,0.00
2014-9-20,87,72,48,59,50,48,99,51,27,0.00,40.00,5,2,16,0.00
2014-9-21,94,82,51,55,53,49,96,39,23,0.00,40.00,2,1,8,0.00
2014-9-22,75,68,62,56,54,52,76,62,50,0.00,40.00,2,2,10,0.00
2014-9-23,70,62,52,59,56,51,96,80,59,0.00,40.00,2,1,4,0.00
2014-9-24,65,61,58,62,59,57,98,94,87,0.00,40.00,2,1,5,0.01
2014-9-25,74,61,52,59,56,51,99,85,46,0.00,40.00,3,1,10,0.01
2014-9-26,74,59,47,58,51,47,100,80,48,0.00,40.00,2,1,8,0.00
2014-9-27,79,58,42,55,49,42,100,74,39,0.00,40.00,3,1,9,0.00
2014-9-28,83,64,44,57,50,44,100,67,30,0.00,40.00,4,1,7,0.00
2014-9-29,70,63,59,58,53,46,86,70,55,0.00,40.00,4,2,15,0.00
2014-10-4,82,62,38,50,44,38,99,55,31,0.00,40.00,2,1,4,0.00
2014-10-5,89,77,56,58,53,50,80,46,33,0.00,40.00,2,1,6,0.00
2014-10-6,88,74,47,57,55,47,100,56,35,0.00,40.00,2,1,6,0.00
2014-10-7,77,62,45,58,53,45,99,76,51,0.00,40.00,1,1,4,0.00
2014-10-8,76,68,59,54,51,48,82,59,36,0.00,40.00,1,0,3,0.00
2014-10-9,78,65,49,50,48,46,92,59,37,0.00,40.00,2,1,4,0.00
2014-10-10,78,65,49,54,51,46,89,64,44,0.00,40.00,3,2,10,0.00
2014-10-11,72,61,54,57,52,44,94,72,41,0.00,40.00,6,2,17,0.01
2014-10-12,66,57,51,53,50,46,96,78,58,0.00,40.00,3,1,10,0.01
2014-10-13,72,52,41,51,45,41,100,81,33,0.00,40.00,3,1,5,0.00
2014-10-14,59,54,45,54,52,42,99,92,78,0.00,40.00,4,1,16,0.01
2014-10-15,61,54,46,53,49,45,100,86,59,0.00,40.00,7,2,19,0.01
2014-10-16,67,53,46,50,46,42,99,80,40,0.00,40.00,3,1,7,0.00
2014-10-17,56,52,47,53,50,46,99,93,80,0.00,40.00,2,1,5,0.00
2014-10-18,71,55,47,59,52,47,100,89,64,0.00,40.00,2,0,5,0.00
2014-10-19,71,55,46,57,52,46,100,90,56,0.00,40.00,3,1,8,0.00
2014-10-20,59,55,49,58,54,49,100,97,88,0.00,40.00,2,1,5,0.01
2014-10-21,63,53,46,56,50,46,100,91,73,0.00,40.00,2,1,7,0.01
2014-10-22,56,53,49,55,52,48,100,97,88,0.00,40.00,2,1,4,0.01
2014-10-23,58,52,47,54,50,47,100,95,82,0.00,40.00,3,1,11,0.01
2014-10-24,53,48,44,51,48,44,100,98,87,0.00,40.00,1,0,7,0.01
2014-10-25,56,53,51,53,49,43,97,85,65,0.00,40.00,10,2,22,0.01
2014-10-26,56,49,43,47,45,43,100,88,65,0.00,40.00,5,2,11,0.01
2014-10-27,55,48,41,49,46,41,100,92,72,0.00,40.00,3,1,8,0.01
2014-10-28,50,48,44,49,48,44,100,98,93,0.00,40.00,1,1,4,0.01
2014-10-29,60,51,42,56,50,42,100,97,82,0.00,40.00,1,0,4,0.01
2014-10-30,56,54,52,53,53,51,100,95,84,0.00,40.00,3,1,7,0.02
2014-11-4,60,55,50,56,52,48,100,90,78,0.00,40.00,4,1,10,0.00
2014-11-5,60,53,45,54,50,45,100,90,73,0.00,40.00,1,0,4,0.00
2014-11-6,58,50,46,55,49,46,100,98,85,0.00,40.00,2,1,5,0.00
2014-11-8,-200,0,200,-100,0,200,0,0,100,0.00,40.00,0,0,1,0.00
2014-11-10,51,41,31,31,28,25,91,62,38,0.00,40.00,2,1,6,0.00
2014-11-11,41,34,25,27,16,4,96,53,28,0.00,40.00,9,4,24,0.00
2014-11-12,35,30,25,8,5,3,41,34,27,0.00,40.00,5,4,17,0.00
2014-11-13,29,27,25,24,18,7,97,73,39,0.00,40.00,3,2,9,0.00
2014-11-14,25,25,24,24,24,23,97,96,95,0.00,40.00,0,0,0,0.00
2014-11-15,-200,0,200,-100,0,200,0,0,100,0.00,40.00,2,2,6,0.00
2014-11-18,30,24,17,21,18,16,95,79,63,0.00,40.00,1,0,2,0.00
2014-11-19,31,26,20,25,21,19,94,82,68,0.00,40.00,4,1,13,0.00
2014-11-22,50,42,33,43,38,33,100,87,63,0.00,40.00,6,2,21,0.01
2014-11-23,57,46,38,44,41,37,100,84,48,0.00,40.00,13,3,28,0.01
2014-11-24,49,44,35,48,42,35,100,95,83,0.00,40.00,1,0,5,0.01
2014-11-25,62,58,50,54,52,49,96,81,68,0.00,40.00,8,2,18,0.01
2014-11-26,64,56,47,53,50,46,98,82,66,0.00,40.00,2,1,7,0.00
2014-11-27,56,53,45,51,49,45,99,85,78,0.00,40.00,2,1,7,0.00
2014-11-28,56,50,43,54,48,38,100,92,75,0.00,40.00,7,2,13,0.03
2014-11-29,43,36,29,38,31,23,96,81,61,0.00,40.00,6,3,18,0.02
2014-11-30,30,26,22,20,10,6,66,51,39,0.00,40.00,4,3,18,0.01
2014-12-1,29,26,22,24,18,12,86,72,61,0.00,40.00,3,1,9,0.00
2014-12-2,30,28,27,26,23,21,90,80,71,0.00,40.00,4,2,16,0.00
2014-12-3,32,31,29,25,24,22,80,74,67,0.00,40.00,4,3,17,0.00
2014-12-4,34,32,31,33,31,25,100,94,78,0.00,40.00,2,0,5,0.02
2014-12-5,37,35,33,33,33,32,100,91,84,0.00,40.00,3,1,10,0.01
2014-12-6,43,37,34,39,36,34,100,94,84,0.00,40.00,2,0,5,0.01
2014-12-7,42,40,37,41,38,37,100,95,87,0.00,40.00,3,1,11,0.00
2014-12-8,42,41,40,39,38,37,97,91,83,0.00,40.00,3,1,6,0.00
2014-12-9,44,40,39,42,40,39,100,97,92,0.00,40.00,2,1,5,0.01
2014-12-10,47,43,42,46,43,42,100,97,96,0.00,40.00,2,1,5,0.01
2014-12-11,53,45,35,47,42,35,100,88,62,0.00,40.00,3,2,10,0.00
2014-12-12,47,42,39,43,41,39,97,94,87,0.00,40.00,1,0,2,0.00
2014-12-15,39,38,36,34,33,32,91,82,78,0.00,40.00,4,3,13,0.00
2014-12-16,38,36,33,37,35,33,100,94,89,0.00,40.00,3,1,8,0.00
2014-12-17,41,39,38,39,38,36,100,93,85,0.00,40.00,2,1,8,0.00
2014-12-18,43,39,37,40,38,36,100,96,88,0.00,40.00,1,0,3,0.00